Liberal, KS

5:24 PM CDT on April 21, 2018 (GMT -0500)
Liberal Municipal

Weather History for KLBL - December, 2012

Change the Weather History Date:

Thursday, December 6, 2012

  Actual Average Record
Temperature  
Mean Temperature 45 °F -  
Max Temperature 57 °F 51 °F 82 °F (1939)
Min Temperature 33 °F 23 °F -5 °F (1972)
Degree Days  
Heating Degree Days 20    
Moisture  
Dew Point 22 °F    
Average Humidity 41    
Maximum Humidity 52    
Minimum Humidity 33    
Precipitation  
Precipitation 0.00 in - - ()
Sea Level Pressure  
Sea Level Pressure 29.87 in    
Wind  
Wind Speed 13 mph (North)    
Max Wind Speed 28 mph    
Max Gust Speed 33 mph    
Visibility 10 miles    
Events      
Averages and records for this station are not official NWS values.
T = Trace of Precipitation, MM = Missing Value Source: NWS Daily Summary

Daily Weather History Graph

Daily Weather History Graph

Search for Another Location

Airport or City:

Astronomy

Dec. 06, 2012 Rise Set
Actual Time 7:43 AM CST 5:26 PM CST
Civil Twilight 7:14 AM CST 5:55 PM CST
Nautical Twilight 6:42 AM CST 6:27 PM CST
Astronomical Twilight 6:10 AM CST 6:59 PM CST
Moon 12:11 AM CST (12/6) 12:45 PM CST (12/6)
Length of Visible Light 10h 40m
Length of Day
9h 43m
Waning Gibbous, 49% of the Moon is Illuminated
Dec 6
Waning Gibbous
Dec 13
New
Dec 19
First Quarter
Dec 28
Full
Jan 4
Last Quarter

Hourly Weather History & Observations

Time (CST) Temp. Windchill Dew Point Humidity Pressure Visibility Wind Dir Wind Speed Gust Speed Precip Events Conditions
12:15 AM 42.8 °F 37.5 °F 15.8 °F 34% 29.84 in 10.0 mi SSE 9.2 mph - N/A   Clear
12:35 AM 42.8 °F 37.5 °F 15.8 °F 34% 29.83 in 10.0 mi SSE 9.2 mph - N/A   Clear
12:55 AM 39.2 °F 33.6 °F 15.8 °F 39% 29.82 in 10.0 mi SSE 8.1 mph - N/A   Clear
1:15 AM 39.2 °F 32.5 °F 15.8 °F 39% 29.81 in 10.0 mi South 10.4 mph - N/A   Clear
1:35 AM 39.2 °F 33.0 °F 15.8 °F 39% 29.81 in 10.0 mi South 9.2 mph - N/A   Clear
1:55 AM 39.2 °F 33.6 °F 17.6 °F 42% 29.80 in 10.0 mi South 8.1 mph - N/A   Clear
2:15 AM 37.4 °F 31.4 °F 17.6 °F 45% 29.79 in 10.0 mi South 8.1 mph - N/A   Clear
2:35 AM 37.4 °F 30.3 °F 17.6 °F 45% 29.78 in 10.0 mi SSE 10.4 mph - N/A   Clear
2:55 AM 39.2 °F 33.6 °F 19.4 °F 45% 29.77 in 10.0 mi South 8.1 mph - N/A   Clear
3:15 AM 39.2 °F 35.0 °F 19.4 °F 45% 29.77 in 10.0 mi South 5.8 mph - N/A   Clear
3:35 AM 39.2 °F 33.6 °F 19.4 °F 45% 29.77 in 10.0 mi South 8.1 mph - N/A   Clear
3:55 AM 41.0 °F 34.7 °F 21.2 °F 45% 29.77 in 10.0 mi SSW 10.4 mph - N/A   Clear
4:15 AM 39.2 °F 33.6 °F 19.4 °F 45% 29.76 in 10.0 mi SW 8.1 mph - N/A   Clear
4:35 AM 37.4 °F 30.8 °F 17.6 °F 45% 29.75 in 10.0 mi WSW 9.2 mph - N/A   Clear
4:55 AM 35.6 °F 31.7 °F 19.4 °F 52% 29.74 in 10.0 mi West 4.6 mph - N/A   Clear
5:15 AM 35.6 °F 28.6 °F 17.6 °F 48% 29.75 in 10.0 mi WNW 9.2 mph - N/A   Clear
5:35 AM 37.4 °F 27.2 °F 21.2 °F 52% 29.75 in 10.0 mi NW 19.6 mph - N/A   Clear
6:15 AM 37.4 °F 27.8 °F 21.2 °F 52% 29.76 in 10.0 mi NNW 17.3 mph - N/A   Clear
6:35 AM 37.4 °F 27.5 °F 19.4 °F 48% 29.78 in 10.0 mi NNW 18.4 mph - N/A   Clear
6:55 AM 35.6 °F 26.2 °F 17.6 °F 48% 29.79 in 10.0 mi NNW 15.0 mph - N/A   Clear
7:15 AM 35.6 °F 26.2 °F 17.6 °F 48% 29.80 in 10.0 mi NNW 15.0 mph - N/A   Clear
7:35 AM 35.6 °F 27.5 °F 17.6 °F 48% 29.82 in 10.0 mi NNW 11.5 mph - N/A   Clear
7:55 AM 35.6 °F 25.9 °F 19.4 °F 52% 29.83 in 10.0 mi NNW 16.1 mph - N/A   Clear
8:15 AM 37.4 °F 28.2 °F 19.4 °F 48% 29.83 in 10.0 mi North 16.1 mph - N/A   Clear
8:35 AM 39.2 °F 30.8 °F 21.2 °F 49% 29.83 in 10.0 mi North 15.0 mph - N/A   Clear
8:55 AM 42.8 °F 34.8 °F 21.2 °F 42% 29.85 in 10.0 mi NNW 17.3 mph - N/A   Clear
9:15 AM 44.6 °F 37.2 °F 24.8 °F 46% 29.84 in 10.0 mi North 17.3 mph - N/A   Clear
9:35 AM 46.4 °F 38.7 °F 24.8 °F 43% 29.85 in 10.0 mi North 20.7 mph - N/A   Clear
9:55 AM 48.2 °F - 24.8 °F 40% 29.86 in 10.0 mi NNW 23.0 mph - N/A   Clear
10:15 AM 50.0 °F - 26.6 °F 40% 29.87 in 10.0 mi North 23.0 mph - N/A   Clear
10:35 AM 51.8 °F - 28.4 °F 41% 29.87 in 10.0 mi North 25.3 mph - N/A   Clear
10:55 AM 53.6 °F - 28.4 °F 38% 29.87 in 10.0 mi North 27.6 mph - N/A   Clear
11:15 AM 53.6 °F - 30.2 °F 41% 29.88 in 10.0 mi NNE 26.5 mph 33.4 mph N/A   Clear
11:35 AM 55.4 °F - 32.0 °F 41% 29.88 in 10.0 mi North 23.0 mph 29.9 mph N/A   Clear
11:55 AM 57.2 °F - 30.2 °F 36% 29.88 in 10.0 mi NNE 26.5 mph 32.2 mph N/A   Clear
12:15 PM 57.2 °F - 32.0 °F 38% 29.87 in 10.0 mi NNE 27.6 mph 32.2 mph N/A   Clear
12:35 PM 57.2 °F - 30.2 °F 36% 29.88 in 10.0 mi North 24.2 mph 31.1 mph N/A   Clear
12:55 PM 57.2 °F - 30.2 °F 36% 29.88 in 10.0 mi NNE 24.2 mph 32.2 mph N/A   Clear
1:15 PM 57.2 °F - 30.2 °F 36% 29.88 in 10.0 mi NNE 26.5 mph 31.1 mph N/A   Clear
1:35 PM 57.2 °F - 28.4 °F 33% 29.88 in 10.0 mi North 26.5 mph 32.2 mph N/A   Clear
1:55 PM 57.2 °F - 30.2 °F 36% 29.88 in 10.0 mi NNE 24.2 mph 31.1 mph N/A   Clear
2:15 PM 57.2 °F - 30.2 °F 36% 29.88 in 10.0 mi NNE 24.2 mph - N/A   Clear
2:35 PM 57.2 °F - 30.2 °F 36% 29.88 in 10.0 mi NNE 21.9 mph - N/A   Clear
2:55 PM 57.2 °F - 30.2 °F 36% 29.88 in 10.0 mi NNE 20.7 mph 25.3 mph N/A   Clear
3:15 PM 57.2 °F - 30.2 °F 36% 29.89 in 10.0 mi NNE 20.7 mph 29.9 mph N/A   Clear
3:35 PM 57.2 °F - 30.2 °F 36% 29.89 in 10.0 mi NNE 21.9 mph 27.6 mph N/A   Clear
3:55 PM 55.4 °F - 28.4 °F 36% 29.90 in 10.0 mi NNE 19.6 mph 24.2 mph N/A   Clear
4:15 PM 55.4 °F - 28.4 °F 36% 29.90 in 10.0 mi North 21.9 mph 26.5 mph N/A   Clear
4:35 PM 53.6 °F - 26.6 °F 35% 29.91 in 10.0 mi NNE 19.6 mph - N/A   Clear
4:55 PM 51.8 °F - 24.8 °F 35% 29.92 in 10.0 mi NNE 15.0 mph - N/A   Clear
5:15 PM 51.8 °F - 24.8 °F 35% 29.92 in 10.0 mi NNE 15.0 mph - N/A   Clear
5:35 PM 48.2 °F - 23.0 °F 37% 29.93 in 10.0 mi NNE 12.7 mph - N/A   Clear
5:55 PM 46.4 °F 41.5 °F 21.2 °F 37% 29.94 in 10.0 mi North 10.4 mph - N/A   Clear
6:15 PM 46.4 °F 40.7 °F 19.4 °F 34% 29.94 in 10.0 mi NNE 12.7 mph - N/A   Clear
6:35 PM 44.6 °F 39.7 °F 19.4 °F 37% 29.94 in 10.0 mi NNE 9.2 mph - N/A   Clear
6:55 PM 44.6 °F 39.2 °F 19.4 °F 37% 29.95 in 10.0 mi North 10.4 mph - N/A   Clear
7:15 PM 42.8 °F 38.6 °F 17.6 °F 36% 29.97 in 10.0 mi North 6.9 mph - N/A   Clear
7:35 PM 42.8 °F 37.5 °F 17.6 °F 36% 29.97 in 10.0 mi NNE 9.2 mph - N/A   Clear
7:55 PM 42.8 °F 38.0 °F 17.6 °F 36% 29.97 in 10.0 mi NNE 8.1 mph - N/A   Clear
8:35 PM 39.2 °F 35.0 °F 15.8 °F 39% 29.98 in 10.0 mi North 5.8 mph - N/A   Clear
8:55 PM 37.4 °F 34.9 °F 17.6 °F 45% 29.97 in 10.0 mi North 3.5 mph - N/A   Clear
9:15 PM 35.6 °F 29.9 °F 15.8 °F 44% 29.97 in 10.0 mi North 6.9 mph - N/A   Clear
9:35 PM 35.6 °F 29.2 °F 15.8 °F 44% 29.97 in 10.0 mi North 8.1 mph - N/A   Clear
9:55 PM 35.6 °F 29.9 °F 15.8 °F 44% 29.97 in 10.0 mi North 6.9 mph - N/A   Clear
10:15 PM 35.6 °F 30.7 °F 15.8 °F 44% 29.97 in 10.0 mi North 5.8 mph - N/A   Clear
10:35 PM 35.6 °F 30.7 °F 15.8 °F 44% 29.97 in 10.0 mi North 5.8 mph - N/A   Clear
10:55 PM 35.6 °F 31.7 °F 15.8 °F 44% 29.97 in 10.0 mi North 4.6 mph - N/A   Clear
11:15 PM 33.8 °F 25.3 °F 14.0 °F 44% 29.98 in 10.0 mi NNW 11.5 mph - N/A   Clear
11:35 PM 35.6 °F 29.2 °F 15.8 °F 44% 29.97 in 10.0 mi NNW 8.1 mph - N/A   Clear
11:55 PM 33.8 °F 27.7 °F 15.8 °F 48% 29.97 in 10.0 mi NNW 6.9 mph - N/A   Clear